Погода в Североонежске

Россия / Архангельская область     62°35′27″N   39°50′27″E
темп.,
°C
ветер,
м/с
пор.,
м/с
влажн.,
%
обл.,
%
осадки,
мм/ч
давл.,
гПа
погр.,
м
26 мая, чт
чт2600:00+4ссз310927 0.0 1010290
03:00+2сз3109416 0.0 1009287
06:00+4ссз3985100 0.1 1007379
09:00+7ссз4883100 0.4 1005863
12:00+6сз3890100 0.5 1004609
15:00+6зсз2691100 0.7 1003465
18:00+6юз2390100 0.1 1002200
21:00+6ююз2295100 0.1 100159
27 мая, пт
пт2700:00+5ю2597100 0.0 999126
03:00+5ююв2796100 0.0 998248
06:00+6ю3891100 0.0 997309
09:00+10ю4770100 0.0 996640
12:00+15ю5742100 0.0 9952390
15:00+15юв4744100 0.0 9942205
18:00+12ююв4868100 0.2 9951143
21:00+10вюв41179100 0.3 995613
28 мая, сб
сб2800:00+9ююв41093100 0.3 995750
03:00+8ююв3994100 0.4 997374
06:00+9вюв2491100 0.1 997250
09:00+12в3572100 0.3 996962
12:00+9всв3793100 1.6 996503
15:00+9всв1497100 3.8 996298
18:00+9юв129590 0.3 996223
21:00+9вюв1196100 0.3 99618
29 мая, вс
вс2900:00+8ююв119797 0.0 99731
03:00+8ю129875 0.0 99760
06:00+9ююз249091 0.0 999222
09:00+13юз347374 0.1 1000913
12:00+14зюз3559100 0.4 10021428
15:00+16зюз355390 0.6 10041645
18:00+15юз2555100 0.1 1006604
21:00+11ююз23825 0.1 100846
30 мая, пн
пн3000:00+8ююз22950 0.0 101019
03:00+7ююв229677 0.0 101229
06:00+10ю238098 0.0 1013201
09:00+15юз345711 0.0 10141190
12:00+17юз3446100 0.1 10151996
15:00+16ююз3445100 0.1 10161846
18:00+16з235290 0.2 10171091
21:00+11ююз11725 0.3 101911